CDT,Max TemperatureF,Mean TemperatureF,Min TemperatureF,Max Dew PointF,MeanDew PointF,Min DewpointF,Max Humidity, Mean Humidity, Min Humidity, Max Sea Level PressureIn, Mean Sea Level PressureIn, Min Sea Level PressureIn, Max VisibilityMiles, Mean VisibilityMiles, Min VisibilityMiles, Max Wind SpeedMPH, Mean Wind SpeedMPH, Max Gust SpeedMPH,PrecipitationIn, CloudCover, Events, WindDirDegrees
2012-9-1,77,74,71,73,71,69,94,91,82,30.08,30.03,29.96,10,5,0,13,5,17,0.71,5,Fog-Rain,105
2012-9-2,83,78,72,73,71,70,100,86,74,29.97,29.91,29.86,10,6,2,18,9,24,0.23,6,Rain,80
2012-9-3,88,78,68,73,69,66,93,80,61,29.92,29.89,29.86,10,8,5,10,5,15,0.00,0,,37
2012-9-4,87,78,68,72,69,67,94,80,57,29.92,29.87,29.84,10,9,4,21,5,32,0.01,2,,42
2012-9-5,80,73,65,66,64,62,93,79,60,29.95,29.85,29.79,10,9,6,18,6,28,0.14,2,Rain,205
2012-9-6,84,72,60,67,62,58,96,71,44,29.93,29.90,29.84,10,9,4,12,4,15,0.00,0,,323
2012-9-7,81,70,58,67,62,57,94,85,56,29.92,29.82,29.74,10,8,2,15,6,22,0.33,5,Rain,35
2012-9-8,71,64,56,58,52,47,90,69,45,29.91,29.84,29.79,10,10,6,17,8,28,0.14,3,Rain,311
2012-9-9,70,60,50,60,55,48,100,78,55,30.15,30.01,29.85,10,9,2,14,4,29,0.06,4,Rain,350
2012-9-10,76,63,49,51,48,45,89,62,37,30.25,30.18,30.13,10,10,10,10,3,14,0.00,0,,132
2012-9-11,82,65,48,55,52,47,93,64,35,30.21,30.15,30.10,10,10,7,20,7,25,0.00,0,,193
2012-9-12,85,69,52,58,54,50,93,61,33,30.21,30.17,30.12,10,10,8,20,6,25,0.00,0,,189
2012-9-13,80,69,57,64,58,55,94,76,54,30.30,30.24,30.18,10,9,5,13,6,22,0.17,7,Rain,324
2012-9-14,73,62,51,57,49,38,94,69,29,30.35,30.31,30.29,10,10,7,10,2,15,0.03,3,Rain,34
2012-9-15,78,62,45,54,48,44,97,67,32,30.33,30.25,30.16,10,10,7,9,1,12,0.00,0,,26
2012-9-16,77,60,43,52,46,43,100,77,33,30.16,30.10,30.00,10,6,0,14,3,17,0.00,0,Fog,207
2012-9-17,76,63,50,61,56,48,90,75,51,29.99,29.86,29.75,10,10,8,15,5,23,0.02,4,Rain,242
2012-9-18,62,55,48,57,46,33,88,68,39,30.05,29.85,29.73,10,10,7,21,8,31,T,6,Rain,318
2012-9-19,71,55,39,40,38,34,89,52,27,30.13,30.02,29.91,10,10,9,23,10,31,0.00,1,,197
2012-9-20,72,62,51,50,42,37,74,50,29,29.94,29.90,29.88,10,10,10,18,8,26,0.00,1,,246
2012-9-21,68,57,46,52,44,38,100,74,36,29.95,29.89,29.80,10,9,0,14,4,18,0.04,3,Fog-Rain,218
2012-9-22,59,51,43,49,43,34,100,82,50,30.17,29.93,29.80,10,6,0,23,10,35,0.01,5,Fog-Rain,267
2012-9-23,60,50,39,42,37,33,89,66,39,30.27,30.23,30.17,10,10,10,15,4,22,0.00,1,,304
2012-9-24,70,53,36,37,33,27,86,52,21,30.25,30.12,29.96,10,10,10,21,10,29,0.00,0,,217
2012-9-25,73,60,46,61,51,38,93,69,51,29.96,29.90,29.87,10,10,8,16,5,23,0.00,4,,197
2012-9-26,70,63,55,63,58,46,100,85,60,30.15,29.98,29.87,10,5,0,12,5,17,0.00,6,Fog,302
2012-9-27,70,58,46,51,48,46,90,71,47,30.19,30.16,30.13,10,10,10,12,3,16,0.00,2,,336
2012-9-28,70,57,44,52,48,43,100,81,53,30.15,30.13,30.10,10,7,1,12,4,18,0.00,3,,13
2012-9-29,75,59,43,51,44,39,100,82,29,30.13,30.09,29.97,10,4,0,13,4,17,0.00,0,Fog,313
2012-9-30,70,57,44,51,45,39,93,68,35,29.98,29.95,29.92,10,10,10,13,4,21,0.00,0,,10